{"data":{"norad_id":51813,"intl_designator":"2022-017AX","name":"STARLINK-3552","alt_names":[],"object_type":"PAYLOAD","status":"ACTIVE","operator":null,"country":"US","launch_date":"2022-02-25","launch_site_code":"AFWTR","launch_vehicle":null,"mission":null,"orbit_class":"UNKNOWN","rcs_meters":null,"size_class":null,"mass_kg":null,"dimensions":null,"purposes":["comms"],"wikipedia_slug":null,"has_3d_model":false,"image_url":null,"decayed_at":null,"tle_current":{"epoch":"2026-05-24T20:38:59.624448Z","epoch_age_seconds":87936,"freshness":"FRESH","line1":"1 51813U 22017AX  26144.86041232  .00000410  00000+0  43878-4 0  9991","line2":"2 51813  53.2136 347.2065 0001257  89.6989 270.4148 15.08835851235584","mean_motion":15.08835851,"eccentricity":0.0001257,"inclination_deg":53.2136,"raan_deg":347.2065,"arg_perigee_deg":89.6989,"mean_anomaly_deg":270.4148,"bstar":4.3878e-5,"rev_number":23558,"period_min":95.437817112154,"perigee_km":538.88649166733,"apogee_km":540.62564998533,"semimajor_km":6917.8930708263,"source":"CELESTRAK","updated_at":"2026-05-25T13:38:16.958569Z"}}}